Location: Unspecified
(0.0000°N, 0.0000°E)
Time: 09:02:05
(UTC+02:00)

GPS 2-15 Rocket1 - Visible Passes

Search period start: 30 July 2014 00:00
Search period end: 09 August 2014 00:00
Orbit: 628 x 681 km, 19.8° (Epoch: 30 July)

Date Brightness Start Highest point End Pass type
(mag) Time Alt. Az. Time Alt. Az. Time Alt. Az.
30 Jul 5.2 07:05:37 10° NW 07:09:18 23° NNE 07:13:01 10° ENE visible
30 Jul 3.3 21:02:51 10° WSW 21:07:49 79° NNW 21:11:49 15° ENE visible
30 Jul 5.9 22:48:13 10° WNW 22:49:36 16° WNW 22:49:36 16° WNW visible
31 Jul 5.5 05:52:08 15° N 05:52:39 15° NNE 05:55:20 10° NE visible
31 Jul 4.3 07:32:47 10° NW 07:37:11 42° NNE 07:41:38 10° E visible
31 Jul 4.3 21:30:59 10° W 21:35:38 41° NNW 21:38:27 21° NE visible
01 Aug 4.9 06:18:44 20° NNW 06:20:38 26° NNE 06:24:30 10° ENE visible
01 Aug 5.1 21:59:37 10° WNW 22:03:31 23° NNW 22:05:02 20° N visible
02 Aug 3.9 06:45:23 19° NW 06:48:30 48° NNE 06:53:00 10° E visible
02 Aug 4.6 20:42:18 10° W 20:46:52 37° NNW 20:51:24 10° NE visible
02 Aug 5.8 22:28:57 10° NW 22:31:32 14° NNW 22:31:32 14° NNW visible
03 Aug 5.6 05:34:17 19° ENE 05:34:17 19° ENE 05:35:59 10° E visible
03 Aug 3.0 07:12:04 12° WNW 07:16:18 85° SSW 07:20:59 10° ESE visible
03 Aug 5.4 21:11:02 10° WNW 21:14:47 21° NNW 21:18:30 10° NNE visible
04 Aug 4.2 06:00:57 42° ENE 06:00:57 42° ENE 06:04:22 10° E visible
04 Aug 3.6 07:39:42 10° W 07:44:07 42° SSW 07:48:33 10° SE visible
04 Aug 5.8 21:40:31 10° NW 21:42:50 13° NNW 21:45:08 10° NNE visible
05 Aug 2.9 06:27:35 74° SSW 06:27:36 74° SSW 06:32:15 10° ESE visible
06 Aug 3.7 06:54:11 31° SW 06:55:25 37° SSW 06:59:44 10° SE visible
06 Aug 5.9 20:52:10 10° NW 20:54:07 12° NNW 20:56:05 10° N visible
07 Aug 5.7 05:42:56 14° ESE 05:42:56 14° ESE 05:43:32 10° ESE visible
07 Aug 4.6 07:20:42 14° WSW 07:23:19 21° SSW 07:26:50 10° SSE visible
08 Aug 5.1 06:09:22 19° SSE 06:09:22 19° SSE 06:10:56 10° SE visible
